[ hide orbit diagram ]
For accurate long-term ephemerides, please instead use our Horizons system.This orbit viewer was implemented using two-body methods, and hence should not be used for determining accurate long-term trajectories (over several years or decades) or planetary encounter circumstances.
Orbital Elements at Epoch 2459200.5 (2020-Dec-17.0) TDB
Reference: JPL 17 (heliocentric ecliptic J2000)
Element | Value | Uncertainty (1-sigma) | Units |
e | .04036591668679086 | 6.2572e-08 | |
a | 3.485364142260606 | 5.0134e-08 | au |
q | 3.344674223670986 | 2.412e-07 | au |
i | 9.093478647865126 | 6.5479e-06 | deg |
node | 112.0234352973646 | 4.4684e-05 | deg |
peri | 161.4678310879856 | 9.9049e-05 | deg |
M | 232.9735085692386 | 8.6955e-05 | deg |
tp | 2460039.114692663991 (2023-Apr-04.61469266) | 0.00057114 | TDB |
period | 2376.679745764643 6.51 | 5.128e-05 1.404e-07 | d yr |
n | .1514718172027751 | 3.2682e-09 | deg/d |
Q | 3.626054060850226 | 5.2158e-08 | au |
|
| | Orbit Determination Parameters
Additional Information
|
[ show covariance matrix ]
Physical Parameter Table
Parameter |
Symbol |
Value |
Units |
Sigma |
Reference |
Notes |
absolute magnitude |
H |
15.3 |
|
n/a |
MPO418300 |
|
diameter |
diameter |
5.017 |
km |
1.280 |
urn:nasa:pds:neowise_diameters_albedos::2.0[mainbelt] (http://adsabs.harvard.edu/abs/2011ApJ...741...68M) |
|
geometric albedo |
albedo |
0.053 |
|
0.053 |
urn:nasa:pds:neowise_diameters_albedos::2.0[mainbelt] (http://adsabs.harvard.edu/abs/2011ApJ...741...68M) |
|
|
243285 Fauvaud | Discovered 2008 Feb. 11 by J.-C. Merlin at Nogales. |
Stéphane Fauvaud (b. 1968) is an active French amateur astronomer. He specializes in photometry of minor planets and variable stars that he observes with the 0.6-m reflector at Pic du Midi Observatory. |
NOTE: some special characters may not display properly (any characters within {} are an attempt to place the proper accent above a character) |
Reference: 20121228/MPCPages.arc | Last Updated: 2013-01-02 |
|
[ show close-approach data ]
|